Year,Month,Day,Hour,Minute,Value (Times are PST for temperature in C)
2018,04,01,00,00,7.20
2018,04,01,00,01,7.20
2018,04,01,00,02,7.20
2018,04,01,00,03,7.20
2018,04,01,00,04,7.20
2018,04,01,00,05,7.20
2018,04,01,00,06,7.20
2018,04,01,00,07,7.10
2018,04,01,00,08,7.10
2018,04,01,00,09,7.10
2018,04,01,00,10,7.10
2018,04,01,00,11,7.10
2018,04,01,00,12,7.10
2018,04,01,00,13,7.10
2018,04,01,00,14,7.10
2018,04,01,00,15,7.10
2018,04,01,00,16,7.10
2018,04,01,00,17,7.10
2018,04,01,00,18,7.10
2018,04,01,00,19,7.10
2018,04,01,00,20,7.00
2018,04,01,00,21,7.00
2018,04,01,00,22,7.10
2018,04,01,00,23,7.10
2018,04,01,00,24,7.10
2018,04,01,00,25,7.10
2018,04,01,00,26,7.10
2018,04,01,00,27,7.10
2018,04,01,00,28,7.10
2018,04,01,00,29,7.00
2018,04,01,00,30,7.00
2018,04,01,00,31,7.00
2018,04,01,00,32,7.00
2018,04,01,00,33,7.00
2018,04,01,00,34,7.00
2018,04,01,00,35,7.00
2018,04,01,00,36,7.00
2018,04,01,00,37,7.00
2018,04,01,00,38,7.00
2018,04,01,00,39,7.00
2018,04,01,00,40,7.00
2018,04,01,00,41,7.00
2018,04,01,00,42,7.00
2018,04,01,00,43,7.00
2018,04,01,00,44,7.00
2018,04,01,00,45,7.00
2018,04,01,00,46,7.00
2018,04,01,00,47,7.00
2018,04,01,00,48,7.00
2018,04,01,00,49,6.90
2018,04,01,00,50,6.90
2018,04,01,00,51,6.90
2018,04,01,00,52,6.90
2018,04,01,00,53,6.90
2018,04,01,00,54,6.90
2018,04,01,00,55,6.90
2018,04,01,00,56,6.90
2018,04,01,00,57,6.90
2018,04,01,00,58,6.90
2018,04,01,00,59,6.90
2018,04,01,01,00,6.90
2018,04,01,01,01,6.90
2018,04,01,01,02,7.00
2018,04,01,01,03,7.00
2018,04,01,01,04,7.10
2018,04,01,01,05,7.10
2018,04,01,01,06,7.10
2018,04,01,01,07,7.10
2018,04,01,01,08,7.10
2018,04,01,01,09,7.10
2018,04,01,01,10,7.10
2018,04,01,01,11,7.10
2018,04,01,01,12,7.10
2018,04,01,01,13,7.10
2018,04,01,01,14,7.10
2018,04,01,01,15,7.00
2018,04,01,01,16,7.00
2018,04,01,01,17,7.00
2018,04,01,01,18,6.90
2018,04,01,01,19,6.90
2018,04,01,01,20,6.90
2018,04,01,01,21,6.90
2018,04,01,01,22,6.90
2018,04,01,01,23,6.80
2018,04,01,01,24,6.80
2018,04,01,01,25,6.80
2018,04,01,01,26,6.80
2018,04,01,01,27,6.80
2018,04,01,01,28,6.80
2018,04,01,01,29,6.80
2018,04,01,01,30,6.70
2018,04,01,01,31,6.70
2018,04,01,01,32,6.70
2018,04,01,01,33,6.70
2018,04,01,01,34,6.70
2018,04,01,01,35,6.70
2018,04,01,01,36,6.70
2018,04,01,01,37,6.70
2018,04,01,01,38,6.70
2018,04,01,01,39,6.70
2018,04,01,01,40,6.70
2018,04,01,01,41,6.70
2018,04,01,01,42,6.60
2018,04,01,01,43,6.60
2018,04,01,01,44,6.60
2018,04,01,01,45,6.60
2018,04,01,01,46,6.60
2018,04,01,01,47,6.60
2018,04,01,01,48,6.50
2018,04,01,01,49,6.50
2018,04,01,01,50,6.50
2018,04,01,01,51,6.40
2018,04,01,01,52,6.40
2018,04,01,01,53,6.40
2018,04,01,01,54,6.40
2018,04,01,01,55,6.30
2018,04,01,01,56,6.30
2018,04,01,01,57,6.30
2018,04,01,01,58,6.30
2018,04,01,01,59,6.30
2018,04,01,02,00,6.20
2018,04,01,02,01,6.20
2018,04,01,02,02,6.20
2018,04,01,02,03,6.20
2018,04,01,02,04,6.20
2018,04,01,02,05,6.20
2018,04,01,02,06,6.20
2018,04,01,02,07,6.20
2018,04,01,02,08,6.20
2018,04,01,02,09,6.20
2018,04,01,02,10,6.20
2018,04,01,02,11,6.20
2018,04,01,02,12,6.20
2018,04,01,02,13,6.20
2018,04,01,02,14,6.20
2018,04,01,02,15,6.20
2018,04,01,02,16,6.20
2018,04,01,02,17,6.20
2018,04,01,02,18,6.20
2018,04,01,02,19,6.20
2018,04,01,02,20,6.20
2018,04,01,02,21,6.20
2018,04,01,02,22,6.20
2018,04,01,02,23,6.20
2018,04,01,02,24,6.20
2018,04,01,02,25,6.20
2018,04,01,02,26,6.20
2018,04,01,02,27,6.20
2018,04,01,02,28,6.10
2018,04,01,02,29,6.10
2018,04,01,02,30,6.10
2018,04,01,02,31,6.10
2018,04,01,02,32,6.10
2018,04,01,02,33,6.10
2018,04,01,02,34,6.10
2018,04,01,02,35,6.10
2018,04,01,02,36,6.10
2018,04,01,02,37,6.10
2018,04,01,02,38,6.10
2018,04,01,02,39,6.10
2018,04,01,02,40,6.10
2018,04,01,02,41,6.10
2018,04,01,02,42,6.10
2018,04,01,02,43,6.10
2018,04,01,02,44,6.10
2018,04,01,02,45,6.10
2018,04,01,02,46,6.10
2018,04,01,02,47,6.10
2018,04,01,02,48,6.10
2018,04,01,02,49,6.10
2018,04,01,02,50,6.10
2018,04,01,02,51,6.10
2018,04,01,02,52,6.10
2018,04,01,02,53,6.10
2018,04,01,02,54,6.10
2018,04,01,02,55,6.10
2018,04,01,02,56,6.10
2018,04,01,02,57,6.10
2018,04,01,02,58,6.20
2018,04,01,02,59,6.20
2018,04,01,03,00,6.20
2018,04,01,03,01,6.20
2018,04,01,03,02,6.20
2018,04,01,03,03,6.20
2018,04,01,03,04,6.20
2018,04,01,03,05,6.20
2018,04,01,03,06,6.20
2018,04,01,03,07,6.20
2018,04,01,03,08,6.20
2018,04,01,03,09,6.20
2018,04,01,03,10,6.20
2018,04,01,03,11,6.20
2018,04,01,03,12,6.20
2018,04,01,03,13,6.20
2018,04,01,03,14,6.20
2018,04,01,03,15,6.20
2018,04,01,03,16,6.20
2018,04,01,03,17,6.20
2018,04,01,03,18,6.20
2018,04,01,03,19,6.20
2018,04,01,03,20,6.20
2018,04,01,03,21,6.20
2018,04,01,03,22,6.20
2018,04,01,03,23,6.20
2018,04,01,03,24,6.20
2018,04,01,03,25,6.20
2018,04,01,03,26,6.20
2018,04,01,03,27,6.20
2018,04,01,03,28,6.20
2018,04,01,03,29,6.20
2018,04,01,03,30,6.20
2018,04,01,03,31,6.20
2018,04,01,03,32,6.20
2018,04,01,03,33,6.20
2018,04,01,03,34,6.20
2018,04,01,03,35,6.20
2018,04,01,03,36,6.10
2018,04,01,03,37,6.10
2018,04,01,03,38,6.10
2018,04,01,03,39,6.10
2018,04,01,03,40,6.10
2018,04,01,03,41,6.10
2018,04,01,03,42,6.10
2018,04,01,03,43,6.00
2018,04,01,03,44,6.00
2018,04,01,03,45,6.00
2018,04,01,03,46,6.00
2018,04,01,03,47,6.00
2018,04,01,03,48,6.00
2018,04,01,03,49,5.90
2018,04,01,03,50,5.90
2018,04,01,03,51,5.90
2018,04,01,03,52,5.90
2018,04,01,03,53,5.90
2018,04,01,03,54,5.90
2018,04,01,03,55,5.90
2018,04,01,03,56,5.80
2018,04,01,03,57,5.80
2018,04,01,03,58,5.80
2018,04,01,03,59,5.80
2018,04,01,04,00,5.70
2018,04,01,04,01,5.70
2018,04,01,04,02,5.70
2018,04,01,04,03,5.70
2018,04,01,04,04,5.70
2018,04,01,04,05,5.60
2018,04,01,04,06,5.60
2018,04,01,04,07,5.60
2018,04,01,04,08,5.60
2018,04,01,04,09,5.50
2018,04,01,04,10,5.50
2018,04,01,04,11,5.50
2018,04,01,04,12,5.50
2018,04,01,04,13,5.40
2018,04,01,04,14,5.40
2018,04,01,04,15,5.40
2018,04,01,04,16,5.40
2018,04,01,04,17,5.40
2018,04,01,04,18,5.40
2018,04,01,04,19,5.40
2018,04,01,04,20,5.30
2018,04,01,04,21,5.30
2018,04,01,04,22,5.30
2018,04,01,04,23,5.30
2018,04,01,04,24,5.30
2018,04,01,04,25,5.30
2018,04,01,04,26,5.30
2018,04,01,04,27,5.30
2018,04,01,04,28,5.30
2018,04,01,04,29,5.30
2018,04,01,04,30,5.20
2018,04,01,04,31,5.20
2018,04,01,04,32,5.20
2018,04,01,04,33,5.20
2018,04,01,04,34,5.20
2018,04,01,04,35,5.10
2018,04,01,04,36,5.10
2018,04,01,04,37,5.10
2018,04,01,04,38,5.10
2018,04,01,04,39,5.00
2018,04,01,04,40,5.00
2018,04,01,04,41,5.00
2018,04,01,04,42,5.00
2018,04,01,04,43,5.00
2018,04,01,04,44,4.90
2018,04,01,04,45,4.90
2018,04,01,04,46,4.80
2018,04,01,04,47,4.80
2018,04,01,04,48,4.80
2018,04,01,04,49,4.80
2018,04,01,04,50,4.80
2018,04,01,04,51,4.80
2018,04,01,04,52,4.70
2018,04,01,04,53,4.70
2018,04,01,04,54,4.70
2018,04,01,04,55,4.70
2018,04,01,04,56,4.70
2018,04,01,04,57,4.70
2018,04,01,04,58,4.70
2018,04,01,04,59,4.60
2018,04,01,05,00,4.60
2018,04,01,05,01,4.60
2018,04,01,05,02,4.50
2018,04,01,05,03,4.50
2018,04,01,05,04,4.40
2018,04,01,05,05,4.40
2018,04,01,05,06,4.40
2018,04,01,05,07,4.40
2018,04,01,05,08,4.40
2018,04,01,05,09,4.30
2018,04,01,05,10,4.30
2018,04,01,05,11,4.30
2018,04,01,05,12,4.30
2018,04,01,05,13,4.30
2018,04,01,05,14,4.20
2018,04,01,05,15,4.20
2018,04,01,05,16,4.20
2018,04,01,05,17,4.20
2018,04,01,05,18,4.20
2018,04,01,05,19,4.10
2018,04,01,05,20,4.10
2018,04,01,05,21,4.10
2018,04,01,05,22,4.10
2018,04,01,05,23,4.00
2018,04,01,05,24,4.00
2018,04,01,05,25,4.00
2018,04,01,05,26,3.90
2018,04,01,05,27,3.90
2018,04,01,05,28,3.90
2018,04,01,05,29,3.90
2018,04,01,05,30,3.90
2018,04,01,05,31,3.90
2018,04,01,05,32,3.90
2018,04,01,05,33,3.90
2018,04,01,05,34,3.80
2018,04,01,05,35,3.80
2018,04,01,05,36,3.80
2018,04,01,05,37,3.80
2018,04,01,05,38,3.80
2018,04,01,05,39,3.80
2018,04,01,05,40,3.80
2018,04,01,05,41,3.80
2018,04,01,05,42,3.80
2018,04,01,05,43,3.80
2018,04,01,05,44,3.80
2018,04,01,05,45,3.70
2018,04,01,05,46,3.70
2018,04,01,05,47,3.70
2018,04,01,05,48,3.70
2018,04,01,05,49,3.70
2018,04,01,05,50,3.70
2018,04,01,05,51,3.70
2018,04,01,05,52,3.70
2018,04,01,05,53,3.70
2018,04,01,05,54,3.70
2018,04,01,05,55,3.70
2018,04,01,05,56,3.70
2018,04,01,05,57,3.70
2018,04,01,05,58,3.70
2018,04,01,05,59,3.70
2018,04,01,06,00,3.70
2018,04,01,06,01,3.60
2018,04,01,06,02,3.60
2018,04,01,06,03,3.60
2018,04,01,06,04,3.60
2018,04,01,06,05,3.60
2018,04,01,06,06,3.60
2018,04,01,06,07,3.60
2018,04,01,06,08,3.60
2018,04,01,06,09,3.60
2018,04,01,06,10,3.50
2018,04,01,06,11,3.50
2018,04,01,06,12,3.50
2018,04,01,06,13,3.50
2018,04,01,06,14,3.50
2018,04,01,06,15,3.40
2018,04,01,06,16,3.40
2018,04,01,06,17,3.40
2018,04,01,06,18,3.40
2018,04,01,06,19,3.40
2018,04,01,06,20,3.30
2018,04,01,06,21,3.30
2018,04,01,06,22,3.30
2018,04,01,06,23,3.30
2018,04,01,06,24,3.30
2018,04,01,06,25,3.30
2018,04,01,06,26,3.30
2018,04,01,06,27,3.30
2018,04,01,06,28,3.30
2018,04,01,06,29,3.30
2018,04,01,06,30,3.30
2018,04,01,06,31,3.30
2018,04,01,06,32,3.30
2018,04,01,06,33,3.30
2018,04,01,06,34,3.30
2018,04,01,06,35,3.30
2018,04,01,06,36,3.30
2018,04,01,06,37,3.30
2018,04,01,06,38,3.30
2018,04,01,06,39,3.30
2018,04,01,06,40,3.20
2018,04,01,06,41,3.20
2018,04,01,06,42,3.20
2018,04,01,06,43,3.20
2018,04,01,06,44,3.20
2018,04,01,06,45,3.20
2018,04,01,06,46,3.20
2018,04,01,06,47,3.20
2018,04,01,06,48,3.20
2018,04,01,06,49,3.20
2018,04,01,06,50,3.20
2018,04,01,06,51,3.20
2018,04,01,06,52,3.20
2018,04,01,06,53,3.10
2018,04,01,06,54,3.10
2018,04,01,06,55,3.10
2018,04,01,06,56,3.10
2018,04,01,06,57,3.10
2018,04,01,06,58,3.10
2018,04,01,06,59,3.10
2018,04,01,07,00,3.10
2018,04,01,07,01,3.10
2018,04,01,07,02,3.10
2018,04,01,07,03,3.10
2018,04,01,07,04,3.00
2018,04,01,07,05,3.00
2018,04,01,07,06,3.00
2018,04,01,07,07,3.00
2018,04,01,07,08,3.00
2018,04,01,07,09,3.00
2018,04,01,07,10,3.00
2018,04,01,07,11,3.00
2018,04,01,07,12,3.00
2018,04,01,07,13,3.00
2018,04,01,07,14,3.00
2018,04,01,07,15,2.90
2018,04,01,07,16,2.90
2018,04,01,07,17,2.90
2018,04,01,07,18,2.90
2018,04,01,07,19,2.90
2018,04,01,07,20,2.90
2018,04,01,07,21,2.90
2018,04,01,07,22,2.90
2018,04,01,07,23,2.90
2018,04,01,07,24,2.90
2018,04,01,07,25,2.90
2018,04,01,07,26,2.90
2018,04,01,07,27,2.90
2018,04,01,07,28,2.90
2018,04,01,07,29,2.90
2018,04,01,07,30,2.90
2018,04,01,07,31,2.90
2018,04,01,07,32,2.90
2018,04,01,07,33,2.90
2018,04,01,07,34,2.90
2018,04,01,07,35,2.90
2018,04,01,07,36,2.90
2018,04,01,07,37,2.90
2018,04,01,07,38,2.90
2018,04,01,07,39,2.90
2018,04,01,07,40,3.00
2018,04,01,07,41,3.00
2018,04,01,07,42,3.00
2018,04,01,07,43,3.10
2018,04,01,07,44,3.10
2018,04,01,07,45,3.10
2018,04,01,07,46,3.10
2018,04,01,07,47,3.20
2018,04,01,07,48,3.20
2018,04,01,07,49,3.20
2018,04,01,07,50,3.20
2018,04,01,07,51,3.20
2018,04,01,07,52,3.20
2018,04,01,07,53,3.20
2018,04,01,07,54,3.20
2018,04,01,07,55,3.20
2018,04,01,07,56,3.20
2018,04,01,07,57,3.20
2018,04,01,07,58,3.20
2018,04,01,07,59,3.20
2018,04,01,08,00,3.20
2018,04,01,08,01,3.20
2018,04,01,08,02,3.20
2018,04,01,08,03,3.20
2018,04,01,08,04,3.20
2018,04,01,08,05,3.20
2018,04,01,08,06,3.30
2018,04,01,08,07,3.30
2018,04,01,08,08,3.30
2018,04,01,08,09,3.30
2018,04,01,08,10,3.30
2018,04,01,08,11,3.30
2018,04,01,08,12,3.30
2018,04,01,08,13,3.30
2018,04,01,08,14,3.30
2018,04,01,08,15,3.30
2018,04,01,08,16,3.30
2018,04,01,08,17,3.30
2018,04,01,08,18,3.30
2018,04,01,08,19,3.30
2018,04,01,08,20,3.30
2018,04,01,08,21,3.30
2018,04,01,08,22,3.30
2018,04,01,08,23,3.30
2018,04,01,08,24,3.30
2018,04,01,08,25,3.30
2018,04,01,08,26,3.30
2018,04,01,08,27,3.30
2018,04,01,08,28,3.30
2018,04,01,08,29,3.30
2018,04,01,08,30,3.30
2018,04,01,08,31,3.30
2018,04,01,08,32,3.30
2018,04,01,08,33,3.30
2018,04,01,08,34,3.30
2018,04,01,08,35,3.30
2018,04,01,08,36,3.30
2018,04,01,08,37,3.30
2018,04,01,08,38,3.30
2018,04,01,08,39,3.30
2018,04,01,08,40,3.30
2018,04,01,08,41,3.30
2018,04,01,08,42,3.40
2018,04,01,08,43,3.40
2018,04,01,08,44,3.50
2018,04,01,08,45,3.50
2018,04,01,08,46,3.60
2018,04,01,08,47,3.70
2018,04,01,08,48,3.80
2018,04,01,08,49,3.90
2018,04,01,08,50,4.00
2018,04,01,08,51,4.10
2018,04,01,08,52,4.20
2018,04,01,08,53,4.20
2018,04,01,08,54,4.30
2018,04,01,08,55,4.40
2018,04,01,08,56,4.50
2018,04,01,08,57,4.60
2018,04,01,08,58,4.70
2018,04,01,08,59,4.80
2018,04,01,09,00,4.90
2018,04,01,09,01,4.90
2018,04,01,09,02,4.90
2018,04,01,09,03,4.90
2018,04,01,09,04,5.00
2018,04,01,09,05,5.00
2018,04,01,09,06,5.10
2018,04,01,09,07,5.10
2018,04,01,09,08,5.20
2018,04,01,09,09,5.30
2018,04,01,09,10,5.40
2018,04,01,09,11,5.50
2018,04,01,09,12,5.70
2018,04,01,09,13,5.80
2018,04,01,09,14,5.80
2018,04,01,09,15,5.80
2018,04,01,09,16,5.70
2018,04,01,09,17,5.60
2018,04,01,09,18,5.50
2018,04,01,09,19,5.50
2018,04,01,09,20,5.50
2018,04,01,09,21,5.50
2018,04,01,09,22,5.50
2018,04,01,09,23,5.60
2018,04,01,09,24,5.50
2018,04,01,09,25,5.50
2018,04,01,09,26,5.60
2018,04,01,09,27,5.60
2018,04,01,09,28,5.60
2018,04,01,09,29,5.70
2018,04,01,09,30,5.70
2018,04,01,09,31,5.80
2018,04,01,09,32,5.80
2018,04,01,09,33,5.90
2018,04,01,09,34,6.00
2018,04,01,09,35,6.10
2018,04,01,09,36,6.10
2018,04,01,09,37,6.20
2018,04,01,09,38,6.10
2018,04,01,09,39,6.10
2018,04,01,09,40,6.00
2018,04,01,09,41,5.90
2018,04,01,09,42,5.90
2018,04,01,09,43,5.90
2018,04,01,09,44,5.90
2018,04,01,09,45,5.90
2018,04,01,09,46,6.00
2018,04,01,09,47,6.00
2018,04,01,09,48,6.00
2018,04,01,09,49,6.00
2018,04,01,09,50,6.00
2018,04,01,09,51,6.00
2018,04,01,09,52,5.90
2018,04,01,09,53,5.90
2018,04,01,09,54,5.90
2018,04,01,09,55,5.80
2018,04,01,09,56,5.80
2018,04,01,09,57,5.80
2018,04,01,09,58,5.90
2018,04,01,09,59,5.90
2018,04,01,10,00,5.90
2018,04,01,10,01,5.90
2018,04,01,10,02,6.00
2018,04,01,10,03,6.00
2018,04,01,10,04,6.00
2018,04,01,10,05,6.00
2018,04,01,10,06,6.00
2018,04,01,10,07,6.00
2018,04,01,10,08,6.00
2018,04,01,10,09,6.00
2018,04,01,10,10,6.00
2018,04,01,10,11,5.90
2018,04,01,10,12,6.00
2018,04,01,10,13,5.90
2018,04,01,10,14,5.90
2018,04,01,10,15,5.80
2018,04,01,10,16,5.80
2018,04,01,10,17,5.80
2018,04,01,10,18,5.80
2018,04,01,10,19,5.70
2018,04,01,10,20,5.70
2018,04,01,10,21,5.70
2018,04,01,10,22,5.60
2018,04,01,10,23,5.60
2018,04,01,10,24,5.60
2018,04,01,10,25,5.60
2018,04,01,10,26,5.60
2018,04,01,10,27,5.50
2018,04,01,10,28,5.50
2018,04,01,10,29,5.50
2018,04,01,10,30,5.50
2018,04,01,10,31,5.50
2018,04,01,10,32,5.50
2018,04,01,10,33,5.50
2018,04,01,10,34,5.50
2018,04,01,10,35,5.60
2018,04,01,10,36,5.60
2018,04,01,10,37,5.60
2018,04,01,10,38,5.70
2018,04,01,10,39,5.70
2018,04,01,10,40,5.80
2018,04,01,10,41,5.80
2018,04,01,10,42,5.90
2018,04,01,10,43,6.00
2018,04,01,10,44,6.10
2018,04,01,10,45,6.20
2018,04,01,10,46,6.30
2018,04,01,10,47,6.30
2018,04,01,10,48,6.30
2018,04,01,10,49,6.40
2018,04,01,10,50,6.50
2018,04,01,10,51,6.60
2018,04,01,10,52,6.70
2018,04,01,10,53,6.80
2018,04,01,10,54,6.80
2018,04,01,10,55,6.80
2018,04,01,10,56,6.80
2018,04,01,10,57,6.80
2018,04,01,10,58,6.80
2018,04,01,10,59,6.80
2018,04,01,11,00,6.90
2018,04,01,11,01,6.80
2018,04,01,11,02,6.80
2018,04,01,11,03,6.70
2018,04,01,11,04,6.70
2018,04,01,11,05,6.60
2018,04,01,11,06,6.60
2018,04,01,11,07,6.60
2018,04,01,11,08,6.60
2018,04,01,11,09,6.60
2018,04,01,11,10,6.60
2018,04,01,11,11,6.50
2018,04,01,11,12,6.50
2018,04,01,11,13,6.50
2018,04,01,11,14,6.40
2018,04,01,11,15,6.30
2018,04,01,11,16,6.20
2018,04,01,11,17,6.20
2018,04,01,11,18,6.10
2018,04,01,11,19,6.10
2018,04,01,11,20,6.10
2018,04,01,11,21,6.10
2018,04,01,11,22,6.00
2018,04,01,11,23,6.00
2018,04,01,11,24,6.00
2018,04,01,11,25,6.00
2018,04,01,11,26,5.90
2018,04,01,11,27,5.90
2018,04,01,11,28,5.80
2018,04,01,11,29,5.80
2018,04,01,11,30,5.80
2018,04,01,11,31,5.80
2018,04,01,11,32,5.80
2018,04,01,11,33,5.80
2018,04,01,11,34,5.80
2018,04,01,11,35,5.80
2018,04,01,11,36,5.70
2018,04,01,11,37,5.70
2018,04,01,11,38,5.70
2018,04,01,11,39,5.80
2018,04,01,11,40,5.80
2018,04,01,11,41,5.80
2018,04,01,11,42,5.80
2018,04,01,11,43,5.90
2018,04,01,11,44,5.90
2018,04,01,11,45,6.00
2018,04,01,11,46,6.00
2018,04,01,11,47,6.10
2018,04,01,11,48,6.20
2018,04,01,11,49,6.30
2018,04,01,11,50,6.40
2018,04,01,11,51,6.50
2018,04,01,11,52,6.50
2018,04,01,11,53,6.60
2018,04,01,11,54,6.50
2018,04,01,11,55,6.40
2018,04,01,11,56,6.30
2018,04,01,11,57,6.20
2018,04,01,11,58,6.10
2018,04,01,11,59,6.00
2018,04,01,12,00,5.90
2018,04,01,12,01,5.90
2018,04,01,12,02,5.90
2018,04,01,12,03,5.90
2018,04,01,12,04,5.90
2018,04,01,12,05,5.90
2018,04,01,12,06,5.90
2018,04,01,12,07,5.90
2018,04,01,12,08,5.90
2018,04,01,12,09,5.90
2018,04,01,12,10,6.00
2018,04,01,12,11,6.10
2018,04,01,12,12,6.10
2018,04,01,12,13,6.10
2018,04,01,12,14,6.10
2018,04,01,12,15,6.10
2018,04,01,12,16,6.10
2018,04,01,12,17,6.10
2018,04,01,12,18,6.00
2018,04,01,12,19,6.00
2018,04,01,12,20,6.00
2018,04,01,12,21,5.90
2018,04,01,12,22,5.90
2018,04,01,12,23,5.90
2018,04,01,12,24,6.00
2018,04,01,12,25,6.00
2018,04,01,12,26,6.00
2018,04,01,12,27,6.00
2018,04,01,12,28,6.00
2018,04,01,12,29,6.00
2018,04,01,12,30,5.90
2018,04,01,12,31,5.90
2018,04,01,12,32,5.90
2018,04,01,12,33,5.90
2018,04,01,12,34,5.90
2018,04,01,12,35,6.00
2018,04,01,12,36,6.00
2018,04,01,12,37,6.00
2018,04,01,12,38,6.10
2018,04,01,12,39,6.20
2018,04,01,12,40,6.20
2018,04,01,12,41,6.30
2018,04,01,12,42,6.30
2018,04,01,12,43,6.40
2018,04,01,12,44,6.50
2018,04,01,12,45,6.50
2018,04,01,12,46,6.60
2018,04,01,12,47,6.70
2018,04,01,12,48,6.70
2018,04,01,12,49,6.80
2018,04,01,12,50,6.80
2018,04,01,12,51,7.00
2018,04,01,12,52,7.10
2018,04,01,12,53,7.10
2018,04,01,12,54,7.10
2018,04,01,12,55,7.00
2018,04,01,12,56,6.80
2018,04,01,12,57,6.60
2018,04,01,12,58,6.50
2018,04,01,12,59,6.40
2018,04,01,13,00,6.30
2018,04,01,13,01,6.30
2018,04,01,13,02,6.30
2018,04,01,13,03,6.30
2018,04,01,13,04,6.30
2018,04,01,13,05,6.30
2018,04,01,13,06,6.20
2018,04,01,13,07,6.20
2018,04,01,13,08,6.20
2018,04,01,13,09,6.20
2018,04,01,13,10,6.20
2018,04,01,13,11,6.10
2018,04,01,13,12,6.10
2018,04,01,13,13,6.10
2018,04,01,13,14,6.10
2018,04,01,13,15,6.10
2018,04,01,13,16,6.10
2018,04,01,13,17,6.00
2018,04,01,13,18,6.00
2018,04,01,13,19,6.10
2018,04,01,13,20,6.10
2018,04,01,13,21,6.10
2018,04,01,13,22,6.10
2018,04,01,13,23,6.10
2018,04,01,13,24,6.20
2018,04,01,13,25,6.30
2018,04,01,13,26,6.40
2018,04,01,13,27,6.50
2018,04,01,13,28,6.70
2018,04,01,13,29,6.90
2018,04,01,13,30,7.00
2018,04,01,13,31,7.00
2018,04,01,13,32,7.10
2018,04,01,13,33,7.10
2018,04,01,13,34,7.00
2018,04,01,13,35,7.00
2018,04,01,13,36,6.90
2018,04,01,13,37,6.80
2018,04,01,13,38,6.70
2018,04,01,13,39,6.60
2018,04,01,13,40,6.60
2018,04,01,13,41,6.60
2018,04,01,13,42,6.70
2018,04,01,13,43,6.70
2018,04,01,13,44,6.80
2018,04,01,13,45,6.80
2018,04,01,13,46,6.90
2018,04,01,13,47,7.00
2018,04,01,13,48,7.00
2018,04,01,13,49,7.20
2018,04,01,13,50,7.30
2018,04,01,13,51,7.30
2018,04,01,13,52,7.30
2018,04,01,13,53,7.30
2018,04,01,13,54,7.30
2018,04,01,13,55,7.30
2018,04,01,13,56,7.30
2018,04,01,13,57,7.20
2018,04,01,13,58,7.10
2018,04,01,13,59,7.10
2018,04,01,14,00,7.00
2018,04,01,14,01,7.00
2018,04,01,14,02,6.90
2018,04,01,14,03,6.80
2018,04,01,14,04,6.70
2018,04,01,14,05,6.60
2018,04,01,14,06,6.50
2018,04,01,14,07,6.50
2018,04,01,14,08,6.40
2018,04,01,14,09,6.40
2018,04,01,14,10,6.40
2018,04,01,14,11,6.30
2018,04,01,14,12,6.30
2018,04,01,14,13,6.30
2018,04,01,14,14,6.20
2018,04,01,14,15,6.20
2018,04,01,14,16,6.10
2018,04,01,14,17,6.10
2018,04,01,14,18,6.00
2018,04,01,14,19,6.00
2018,04,01,14,20,6.10
2018,04,01,14,21,6.10
2018,04,01,14,22,6.10
2018,04,01,14,23,6.10
2018,04,01,14,24,6.10
2018,04,01,14,25,6.10
2018,04,01,14,26,6.10
2018,04,01,14,27,6.10
2018,04,01,14,28,6.10
2018,04,01,14,29,6.10
2018,04,01,14,30,6.10
2018,04,01,14,31,6.10
2018,04,01,14,32,6.10
2018,04,01,14,33,6.00
2018,04,01,14,34,6.10
2018,04,01,14,35,6.10
2018,04,01,14,36,6.00
2018,04,01,14,37,6.00
2018,04,01,14,38,6.00
2018,04,01,14,39,6.10
2018,04,01,14,40,6.00
2018,04,01,14,41,6.00
2018,04,01,14,42,6.10
2018,04,01,14,43,6.10
2018,04,01,14,44,6.10
2018,04,01,14,45,6.10
2018,04,01,14,46,6.00
2018,04,01,14,47,6.00
2018,04,01,14,48,6.00
2018,04,01,14,49,6.00
2018,04,01,14,50,6.10
2018,04,01,14,51,6.10
2018,04,01,14,52,6.10
2018,04,01,14,53,6.10
2018,04,01,14,54,6.10
2018,04,01,14,55,6.10
2018,04,01,14,56,6.10
2018,04,01,14,57,6.10
2018,04,01,14,58,6.10
2018,04,01,14,59,6.20
2018,04,01,15,00,6.20
2018,04,01,15,01,6.20
2018,04,01,15,02,6.30
2018,04,01,15,03,6.50
2018,04,01,15,04,6.70
2018,04,01,15,05,6.80
2018,04,01,15,06,6.90
2018,04,01,15,07,7.00
2018,04,01,15,08,7.10
2018,04,01,15,09,7.10
2018,04,01,15,10,7.10
2018,04,01,15,11,7.10
2018,04,01,15,12,7.10
2018,04,01,15,13,7.20
2018,04,01,15,14,7.20
2018,04,01,15,15,7.20
2018,04,01,15,16,7.20
2018,04,01,15,17,7.10
2018,04,01,15,18,7.10
2018,04,01,15,19,7.00
2018,04,01,15,20,6.90
2018,04,01,15,21,6.80
2018,04,01,15,22,6.70
2018,04,01,15,23,6.60
2018,04,01,15,24,6.50
2018,04,01,15,25,6.50
2018,04,01,15,26,6.40
2018,04,01,15,27,6.40
2018,04,01,15,28,6.30
2018,04,01,15,29,6.30
2018,04,01,15,30,6.30
2018,04,01,15,31,6.30
2018,04,01,15,32,6.30
2018,04,01,15,33,6.30
2018,04,01,15,34,6.30
2018,04,01,15,35,6.30
2018,04,01,15,36,6.30
2018,04,01,15,37,6.30
2018,04,01,15,38,6.30
2018,04,01,15,39,6.40
2018,04,01,15,40,6.40
2018,04,01,15,41,6.40
2018,04,01,15,42,6.40
2018,04,01,15,43,6.40
2018,04,01,15,44,6.40
2018,04,01,15,45,6.40
2018,04,01,15,46,6.30
2018,04,01,15,47,6.30
2018,04,01,15,48,6.30
2018,04,01,15,49,6.20
2018,04,01,15,50,6.20
2018,04,01,15,51,6.20
2018,04,01,15,52,6.20
2018,04,01,15,53,6.20
2018,04,01,15,54,6.10
2018,04,01,15,55,6.10
2018,04,01,15,56,6.00
2018,04,01,15,57,5.90
2018,04,01,15,58,5.90
2018,04,01,15,59,5.80
2018,04,01,16,00,5.70
2018,04,01,16,01,5.60
2018,04,01,16,02,5.50
2018,04,01,16,03,5.40
2018,04,01,16,04,5.40
2018,04,01,16,05,5.30
2018,04,01,16,06,5.30
2018,04,01,16,07,5.30
2018,04,01,16,08,5.20
2018,04,01,16,09,5.20
2018,04,01,16,10,5.20
2018,04,01,16,11,5.20
2018,04,01,16,12,5.20
2018,04,01,16,13,5.30
2018,04,01,16,14,5.30
2018,04,01,16,15,5.40
2018,04,01,16,16,5.40
2018,04,01,16,17,5.50
2018,04,01,16,18,5.60
2018,04,01,16,19,5.70
2018,04,01,16,20,5.80
2018,04,01,16,21,5.80
2018,04,01,16,22,6.00
2018,04,01,16,23,6.10
2018,04,01,16,24,6.20
2018,04,01,16,25,6.30
2018,04,01,16,26,6.40
2018,04,01,16,27,6.50
2018,04,01,16,28,6.50
2018,04,01,16,29,6.70
2018,04,01,16,30,6.70
2018,04,01,16,31,6.80
2018,04,01,16,32,6.90
2018,04,01,16,33,6.90
2018,04,01,16,34,6.90
2018,04,01,16,35,6.90
2018,04,01,16,36,6.80
2018,04,01,16,37,6.90
2018,04,01,16,38,7.00
2018,04,01,16,39,7.00
2018,04,01,16,40,6.90
2018,04,01,16,41,7.00
2018,04,01,16,42,6.90
2018,04,01,16,43,6.90
2018,04,01,16,44,6.80
2018,04,01,16,45,6.80
2018,04,01,16,46,6.80
2018,04,01,16,47,6.70
2018,04,01,16,48,6.60
2018,04,01,16,49,6.50
2018,04,01,16,50,6.40
2018,04,01,16,51,6.30
2018,04,01,16,52,6.30
2018,04,01,16,53,6.30
2018,04,01,16,54,6.30
2018,04,01,16,55,6.30
2018,04,01,16,56,6.20
2018,04,01,16,57,6.20
2018,04,01,16,58,6.20
2018,04,01,16,59,6.20
2018,04,01,17,00,6.20
2018,04,01,17,01,6.20
2018,04,01,17,02,6.30
2018,04,01,17,03,6.40
2018,04,01,17,04,6.50
2018,04,01,17,05,6.50
2018,04,01,17,06,6.60
2018,04,01,17,07,6.70
2018,04,01,17,08,6.60
2018,04,01,17,09,6.60
2018,04,01,17,10,6.60
2018,04,01,17,11,6.60
2018,04,01,17,12,6.50
2018,04,01,17,13,6.50
2018,04,01,17,14,6.40
2018,04,01,17,15,6.40
2018,04,01,17,16,6.30
2018,04,01,17,17,6.20
2018,04,01,17,18,6.20
2018,04,01,17,19,6.20
2018,04,01,17,20,6.10
2018,04,01,17,21,6.10
2018,04,01,17,22,6.10
2018,04,01,17,23,6.10
2018,04,01,17,24,6.10
2018,04,01,17,25,6.10
2018,04,01,17,26,6.10
2018,04,01,17,27,6.10
2018,04,01,17,28,6.10
2018,04,01,17,29,6.10
2018,04,01,17,30,6.10
2018,04,01,17,31,6.10
2018,04,01,17,32,6.10
2018,04,01,17,33,6.10
2018,04,01,17,34,6.10
2018,04,01,17,35,6.10
2018,04,01,17,36,6.10
2018,04,01,17,37,6.10
2018,04,01,17,38,6.10
2018,04,01,17,39,6.10
2018,04,01,17,40,6.10
2018,04,01,17,41,6.10
2018,04,01,17,42,6.10
2018,04,01,17,43,6.20
2018,04,01,17,44,6.20
2018,04,01,17,45,6.30
2018,04,01,17,46,6.40
2018,04,01,17,47,6.40
2018,04,01,17,48,6.50
2018,04,01,17,49,6.50
2018,04,01,17,50,6.60
2018,04,01,17,51,6.70
2018,04,01,17,52,6.70
2018,04,01,17,53,6.80
2018,04,01,17,54,6.90
2018,04,01,17,55,6.90
2018,04,01,17,56,6.90
2018,04,01,17,57,6.90
2018,04,01,17,58,7.00
2018,04,01,17,59,7.00
2018,04,01,18,00,7.00
2018,04,01,18,01,7.00
2018,04,01,18,02,7.00
2018,04,01,18,03,7.00
2018,04,01,18,04,6.90
2018,04,01,18,05,6.80
2018,04,01,18,06,6.80